Location: Newark
(44.3449°N, 4.8694°E)
Time: 21:02:18
(UTC+00:00)

Envisat - Pass Details

Date: 28 January 2020
Orbit: 764 x 766 km, 98.1° (Epoch: 25 February)

Event Time Altitude Azimuth Distance (km) Brightness Sun altitude
Rises 05:59:52 0° 18° (NNE) 3,242 6.3 -11.6°
Reaches altitude 10° 06:02:16 10° 23° (NNE) 2,311 5.6 -11.1°
Maximum altitude 06:07:12 50° 99° (E) 969 4.1 -10.3°
Drops below altitude 10° 06:12:07 10° 175° (S) 2,294 5.8 -9.4°
Sets 06:14:28 0° 180° (S) 3,215 6.5 -9.0°
